Precipitable_Water
1.10 1.00 0.87 0.71 0.41 0.38 0.27 0.27 0.38 0.38 0.42 0.50 0.53 0.48 0.49 0.55 0.55 0.50 1.15 1.36 1.35 1.34 1.44 1.45 1.45 1.43 1.48 1.41 1.40 1.40 1.37 1.28 1.25 1.19 1.14 1.08 1.00 0.92 0.84 1.01 1.15 1.29 1.33 1.43 1.50 1.32 1.10 0.98 0.86
1.06 0.92 0.77 0.60 0.35 0.25 0.23 0.30 0.30 0.39 0.45 0.50 0.52 0.52 0.54 0.52 0.82 0.91 1.07 1.35 1.42 1.41 1.43 1.40 1.43 1.39 1.38 1.42 1.41 1.42 1.39 1.34 1.26 1.21 1.18 1.09 0.99 0.82 0.91 1.04 1.12 1.26 1.35 1.32 1.31 1.15 0.97 0.89 0.77
1.01 0.91 0.60 0.47 0.36 0.23 0.22 0.29 0.33 0.41 0.48 0.47 0.45 0.52 0.51 0.50 0.79 0.92 1.18 1.34 1.42 1.41 1.39 1.35 1.38 1.37 1.41 1.43 1.36 1.36 1.39 1.35 1.29 1.21 1.17 1.09 0.95 0.84 0.92 0.92 0.98 1.13 1.16 1.18 1.12 1.00 0.93 0.82 0.77
0.89 0.77 0.64 0.41 0.28 0.30 0.28 0.33 0.39 0.40 0.45 0.48 0.46 0.44 0.63 0.81 0.79 0.98 1.20 1.35 1.37 1.37 1.34 1.33 1.35 1.36 1.38 1.36 1.30 1.31 1.33 1.32 1.25 1.19 1.13 1.01 0.88 0.87 0.90 0.99 0.98 1.01 1.01 1.00 1.00 0.96 0.86 0.90 0.96
0.85 0.68 0.45 0.37 0.31 0.33 0.36 0.37 0.42 0.40 0.43 0.44 0.45 0.41 0.52 0.79 0.98 1.08 1.17 1.28 1.30 1.34 1.36 1.34 1.31 1.31 1.30 1.26 1.20 1.20 1.21 1.22 1.25 1.20 1.09 0.93 0.91 0.89 0.88 0.90 0.93 0.96 0.98 0.94 0.87 0.83 0.90 0.99 1.05
0.59 0.61 0.38 0.31 0.30 0.35 0.38 0.40 0.38 0.39 0.43 0.45 0.44 0.45 0.54 0.86 0.94 1.08 1.19 1.21 1.31 1.29 1.34 1.33 1.31 1.25 1.23 1.19 1.17 1.15 1.20 1.35 1.26 1.16 1.06 1.01 0.94 0.93 0.91 0.91 0.91 0.92 0.91 0.94 1.01 1.07 1.11 1.13 1.13
0.48 0.45 0.36 0.33 0.31 0.32 0.34 0.41 0.34 0.36 0.43 0.44 0.50 0.42 0.57 0.70 0.95 1.14 1.18 1.22 1.26 1.30 1.29 1.30 1.24 1.20 1.18 1.20 1.13 1.13 1.33 1.31 1.19 1.11 1.07 1.09 1.04 0.97 0.97 1.00 1.02 1.05 1.07 1.11 1.14 1.15 1.16 1.14 1.06
0.54 0.48 0.35 0.35 0.29 0.29 0.37 0.37 0.38 0.36 0.41 0.52 0.54 0.41 0.41 0.66 0.95 1.09 1.22 1.23 1.24 1.26 1.29 1.26 1.21 1.16 1.17 1.18 1.15 1.30 1.32 1.26 1.15 1.12 1.12 1.16 1.12 1.08 1.04 1.02 1.05 1.10 1.18 1.20 1.21 1.24 1.16 1.04 0.99
0.65 0.40 0.31 0.31 0.32 0.33 0.41 0.35 0.42 0.47 0.42 0.47 0.51 0.51 0.61 0.79 0.98 0.94 1.00 1.14 1.18 1.21 1.25 1.30 1.20 1.18 1.18 1.20 1.18 1.27 1.35 1.27 1.14 1.16 1.17 1.20 1.22 1.18 1.14 1.06 1.09 1.15 1.19 1.20 1.24 1.22 1.12 1.02 0.98
0.52 0.40 0.37 0.43 0.42 0.38 0.40 0.38 0.39 0.36 0.37 0.40 0.47 0.67 0.75 0.86 0.90 0.80 0.80 0.84 1.03 1.09 1.20 1.29 1.28 1.26 1.30 1.29 1.26 1.27 1.35 1.29 1.19 1.16 1.19 1.19 1.22 1.23 1.21 1.15 1.12 1.21 1.25 1.27 1.29 1.18 1.04 0.97 0.93
0.49 0.37 0.46 0.47 0.48 0.48 0.41 0.40 0.44 0.36 0.28 0.34 0.40 0.53 0.72 0.82 0.89 0.87 0.90 0.94 0.98 1.16 1.22 1.27 1.33 1.43 1.42 1.42 1.40 1.24 1.26 1.25 1.23 1.15 1.18 1.19 1.23 1.25 1.26 1.19 1.12 1.20 1.26 1.26 1.27 1.14 1.03 0.98 0.88
0.37 0.44 0.44 0.42 0.47 0.46 0.40 0.44 0.38 0.37 0.33 0.43 0.49 0.58 0.68 0.78 0.85 0.93 0.96 0.98 1.03 1.08 1.17 1.30 1.36 1.40 1.45 1.48 1.41 1.28 1.20 1.20 1.18 1.18 1.16 1.16 1.16 1.21 1.23 1.22 1.15 1.13 1.21 1.18 1.18 1.08 0.99 0.92 0.87
0.40 0.42 0.44 0.45 0.46 0.44 0.45 0.38 0.36 0.32 0.39 0.45 0.50 0.55 0.66 0.72 0.82 0.90 0.98 1.07 1.10 1.04 1.11 1.20 1.35 1.36 1.39 1.41 1.40 1.31 1.23 1.22 1.20 1.16 1.17 1.16 1.14 1.17 1.22 1.23 1.18 1.11 1.17 1.14 1.08 1.00 0.92 0.87 0.83
0.44 0.44 0.42 0.42 0.41 0.41 0.36 0.35 0.37 0.34 0.37 0.37 0.40 0.49 0.56 0.68 0.73 0.74 0.78 0.87 1.00 1.05 1.07 1.22 1.26 1.32 1.36 1.34 1.37 1.35 1.31 1.28 1.26 1.21 1.16 1.17 1.16 1.17 1.18 1.17 1.17 1.13 1.13 1.14 1.09 0.99 0.91 0.84 0.82
0.46 0.36 0.38 0.36 0.40 0.38 0.40 0.27 0.27 0.34 0.37 0.33 0.33 0.40 0.50 0.55 0.66 0.63 0.65 0.65 0.86 0.99 1.11 1.16 1.22 1.32 1.31 1.33 1.36 1.37 1.37 1.34 1.30 1.28 1.23 1.17 1.14 1.15 1.15 1.14 1.16 1.18 1.16 1.11 1.08 0.99 0.91 0.85 0.81
0.38 0.39 0.27 0.35 0.35 0.36 0.35 0.18 0.31 0.38 0.35 0.31 0.32 0.33 0.37 0.48 0.53 0.58 0.58 0.58 0.60 0.75 1.00 1.17 1.25 1.29 1.28 1.28 1.33 1.36 1.37 1.36 1.29 1.29 1.29 1.24 1.17 1.13 1.13 1.13 1.17 1.25 1.17 1.12 1.05 0.98 0.88 0.83 0.80
0.37 0.24 0.26 0.30 0.39 0.35 0.32 0.24 0.33 0.39 0.36 0.33 0.32 0.31 0.32 0.35 0.42 0.50 0.53 0.56 0.58 0.60 0.69 0.97 1.17 1.21 1.24 1.27 1.30 1.33 1.37 1.37 1.32 1.31 1.27 1.24 1.22 1.15 1.11 1.12 1.20 1.26 1.16 1.10 1.02 0.96 0.89 0.84 0.83
0.27 0.26 0.27 0.24 0.31 0.34 0.30 0.31 0.32 0.35 0.33 0.33 0.35 0.35 0.34 0.34 0.34 0.43 0.49 0.53 0.57 0.59 0.62 0.67 0.80 0.99 1.04 1.07 1.18 1.25 1.29 1.34 1.36 1.31 1.30 1.27 1.24 1.17 1.13 1.13 1.16 1.22 1.13 1.05 1.04 0.97 0.93 0.88 0.85
0.34 0.31 0.28 0.32 0.37 0.32 0.28 0.29 0.29 0.32 0.34 0.33 0.34 0.34 0.34 0.34 0.37 0.42 0.44 0.46 0.48 0.52 0.56 0.60 0.65 0.73 0.90 0.96 0.96 0.98 1.00 1.13 1.22 1.27 1.32 1.33 1.29 1.22 1.16 1.14 1.18 1.21 1.13 1.07 1.06 0.98 0.92 0.90 0.88
0.40 0.33 0.30 0.36 0.39 0.34 0.30 0.26 0.31 0.30 0.29 0.32 0.33 0.34 0.35 0.37 0.39 0.41 0.43 0.44 0.46 0.46 0.48 0.52 0.57 0.64 0.77 0.92 0.96 0.97 0.95 1.04 1.11 1.25 1.31 1.34 1.33 1.29 1.23 1.19 1.21 1.26 1.19 1.12 1.07 1.03 0.97 0.92 0.89
0.43 0.38 0.35 0.33 0.38 0.38 0.31 0.23 0.23 0.26 0.27 0.27 0.28 0.29 0.30 0.30 0.31 0.33 0.34 0.36 0.40 0.42 0.46 0.49 0.52 0.57 0.65 0.79 0.89 0.96 1.02 1.01 0.99 1.07 1.18 1.22 1.29 1.33 1.33 1.28 1.22 1.21 1.22 1.14 1.13 1.11 1.08 0.98 0.93
0.38 0.48 0.45 0.39 0.33 0.24 0.33 0.17 0.21 0.22 0.20 0.21 0.24 0.24 0.24 0.31 0.30 0.30 0.31 0.32 0.35 0.38 0.41 0.44 0.50 0.55 0.61 0.74 0.78 0.78 0.78 0.78 0.89 0.95 1.03 1.13 1.22 1.24 1.31 1.31 1.28 1.27 1.26 1.20 1.18 1.20 1.14 1.11 1.01
0.47 0.53 0.46 0.40 0.34 0.30 0.27 0.21 0.17 0.19 0.18 0.21 0.24 0.27 0.29 0.31 0.33 0.33 0.34 0.37 0.37 0.40 0.40 0.41 0.42 0.44 0.56 0.63 0.79 0.82 0.78 0.83 0.90 0.93 0.95 1.05 1.13 1.17 1.25 1.29 1.32 1.26 1.23 1.20 1.21 1.20 1.14 1.12 1.10
0.57 0.50 0.45 0.42 0.35 0.21 0.23 0.20 0.13 0.16 0.20 0.23 0.26 0.29 0.31 0.33 0.34 0.35 0.38 0.40 0.43 0.47 0.47 0.46 0.42 0.42 0.46 0.50 0.58 0.76 0.76 0.80 0.84 0.87 0.89 0.93 1.05 1.10 1.17 1.23 1.28 1.28 1.22 1.17 1.18 1.18 1.16 1.12 1.09
0.52 0.45 0.29 0.20 0.18 0.16 0.24 0.19 0.15 0.22 0.25 0.26 0.27 0.28 0.31 0.34 0.35 0.37 0.39 0.40 0.43 0.45 0.49 0.51 0.50 0.48 0.49 0.47 0.50 0.59 0.69 0.78 0.80 0.85 0.90 0.93 0.97 1.05 1.13 1.19 1.17 1.17 1.16 1.13 1.12 1.14 1.14 1.11 1.05
0.43 0.40 0.26 0.15 0.13 0.16 0.24 0.15 0.18 0.25 0.27 0.30 0.29 0.32 0.35 0.38 0.43 0.45 0.46 0.47 0.48 0.49 0.50 0.51 0.51 0.51 0.53 0.53 0.52 0.54 0.59 0.72 0.73 0.80 0.85 0.88 0.91 0.97 1.08 1.16 1.17 1.17 1.15 1.16 1.12 1.10 1.08 1.09 1.04
0.37 0.32 0.37 0.26 0.26 0.19 0.17 0.19 0.21 0.26 0.25 0.28 0.31 0.36 0.39 0.44 0.48 0.51 0.54 0.56 0.56 0.56 0.56 0.57 0.56 0.55 0.56 0.59 0.58 0.55 0.55 0.55 0.59 0.64 0.68 0.76 0.86 0.92 0.97 1.02 1.06 1.13 1.20 1.17 1.13 1.08 1.05 1.02 0.98
0.40 0.42 0.27 0.26 0.14 0.10 0.12 0.13 0.12 0.20 0.25 0.31 0.36 0.43 0.49 0.55 0.59 0.62 0.64 0.62 0.61 0.60 0.62 0.61 0.62 0.62 0.63 0.62 0.61 0.58 0.57 0.55 0.58 0.62 0.62 0.65 0.71 0.80 0.85 0.91 0.95 1.01 1.09 1.11 1.14 1.09 1.05 0.98 0.93
0.35 0.31 0.29 0.27 0.21 0.12 0.11 0.12 0.23 0.25 0.33 0.37 0.45 0.53 0.57 0.62 0.62 0.61 0.58 0.58 0.59 0.60 0.60 0.63 0.65 0.65 0.66 0.65 0.67 0.67 0.65 0.64 0.63 0.64 0.67 0.69 0.72 0.73 0.78 0.83 0.86 0.91 0.96 1.05 1.06 1.02 0.98 0.93 0.88
0.37 0.31 0.28 0.19 0.16 0.21 0.18 0.14 0.33 0.36 0.39 0.43 0.51 0.57 0.64 0.66 0.62 0.58 0.57 0.55 0.55 0.55 0.57 0.58 0.62 0.65 0.67 0.69 0.71 0.72 0.73 0.74 0.73 0.72 0.73 0.75 0.73 0.74 0.74 0.80 0.83 0.85 0.89 0.93 0.97 0.96 0.93 0.89 0.87
Wind_Speed
22 20 19 17 15 13 15 15 13 13 13 12 12 13 14 13 12 12 10 14 13 14 13 11 10 9 7 6 5 5 4 4 5 5 5 6 6 6 6 5 3 3 3 2 3 3 4 4 5
23 21 19 18 16 15 15 15 15 14 13 14 14 13 13 13 12 11 9 12 14 14 13 13 12 10 9 7 6 5 5 5 5 5 5 5 6 5 5 4 4 3 2 3 4 4 5 5 5
24 22 21 19 19 18 15 16 17 14 13 13 13 14 14 13 13 13 11 13 14 15 14 14 13 11 10 8 7 7 6 6 5 5 5 5 5 4 4 4 5 5 5 5 6 6 6 6 5
25 23 21 21 22 19 19 13 15 13 13 12 12 14 14 14 13 15 13 13 14 15 15 14 14 13 11 9 8 7 6 5 5 5 5 5 4 4 4 4 4 5 5 6 6 6 6 5 6
26 24 23 23 23 20 19 21 17 16 16 15 15 16 15 14 14 14 15 16 15 15 16 15 15 14 13 11 10 9 8 7 6 5 5 4 4 4 4 4 4 5 5 5 5 4 4 5 6
27 26 24 26 23 21 22 22 20 19 19 18 16 16 16 14 14 15 15 16 17 17 17 17 16 15 14 12 11 11 10 8 8 7 6 5 4 4 3 3 3 4 4 4 5 4 5 5 6
29 27 27 24 25 22 22 22 23 22 20 19 18 18 18 17 16 16 16 17 17 18 18 18 18 17 16 14 13 12 11 10 9 8 7 6 5 5 5 4 4 4 5 5 5 6 6 7 8
29 27 27 27 24 22 21 23 23 23 22 19 19 19 18 17 16 16 16 17 17 18 19 19 19 19 17 16 15 14 13 12 11 10 9 8 8 7 7 6 6 6 6 6 6 7 7 7 8
29 27 29 27 24 22 20 21 22 21 21 20 20 19 19 18 17 16 17 17 18 18 20 20 20 20 19 18 17 16 16 15 13 13 12 11 10 10 9 9 8 8 8 8 8 8 8 8 8
30 30 30 27 25 22 22 23 22 21 20 21 19 18 19 20 20 19 18 19 20 20 20 21 21 21 20 20 19 18 18 17 16 15 14 13 13 12 12 11 11 11 10 10 10 10 10 10 10
31 30 29 28 25 24 24 23 23 22 22 22 20 20 19 20 20 21 20 20 21 21 21 22 22 22 22 21 21 21 20 19 18 18 17 16 15 15 14 14 13 13 13 13 12 12 12 12 12
27 30 27 26 26 25 26 25 25 25 24 23 21 19 19 20 21 21 22 22 22 22 22 22 22 23 23 23 23 22 21 21 20 20 19 18 17 17 17 16 15 15 14 14 14 14 14 14 14
29 26 28 26 25 26 26 27 27 27 26 26 25 23 22 22 22 23 23 22 22 23 24 24 24 24 24 23 23 23 23 23 22 22 21 20 19 19 18 18 17 17 16 16 16 16 15 16 16
27 31 26 25 26 26 27 28 27 25 25 27 28 27 26 25 25 24 24 24 25 26 26 27 27 26 25 25 24 24 24 24 24 24 23 23 22 20 20 19 19 18 18 17 17 17 16 16 17
25 22 26 27 25 25 24 28 29 28 29 29 30 30 30 30 29 28 27 26 27 28 29 29 30 29 29 28 27 26 26 26 25 25 25 24 24 23 22 21 20 20 19 18 17 17 17 17 17
26 24 22 22 25 26 24 26 23 24 25 29 30 30 32 34 32 32 31 30 29 29 30 31 31 32 32 31 30 30 29 28 28 27 26 26 26 25 24 23 22 21 20 19 19 18 18 18 17
23 22 24 21 23 22 26 24 23 22 24 27 29 30 30 32 33 34 33 33 33 32 31 32 33 34 34 34 34 33 32 31 30 29 28 28 27 27 26 25 24 23 22 21 21 19 19 18 18
23 22 21 22 20 22 25 27 27 27 27 28 29 29 29 30 33 34 35 35 35 35 35 35 34 35 35 35 35 35 34 33 32 32 31 30 30 29 28 27 26 25 24 23 22 21 20 19 18
20 20 20 21 21 22 25 27 28 28 28 29 29 30 32 32 31 32 34 36 37 37 38 37 38 38 37 36 36 36 37 37 36 35 35 33 32 31 30 29 28 28 27 26 24 23 22 21 20
20 19 19 19 19 20 22 26 28 28 28 29 30 31 31 31 31 31 33 35 36 37 38 39 39 40 41 40 39 38 38 39 39 38 37 36 35 34 33 32 31 30 28 27 27 26 24 23 22
19 18 17 18 17 18 20 23 21 20 21 22 24 25 25 25 26 27 28 31 33 35 37 38 38 38 40 42 42 41 39 38 38 38 38 38 37 36 36 35 34 33 32 30 29 28 27 25 25
20 18 16 15 14 17 14 18 18 17 18 17 15 17 20 19 20 21 23 24 27 29 32 36 39 39 39 38 39 42 42 41 41 41 41 40 40 39 38 37 36 35 34 33 31 30 28 27 26
18 16 14 13 13 14 14 14 14 13 13 13 13 12 12 16 17 18 19 21 23 25 27 29 32 39 41 40 41 41 42 42 42 42 42 43 42 42 41 39 38 38 37 36 35 33 32 31 30
15 13 11 12 12 12 13 13 11 8 9 12 11 11 12 15 17 18 20 21 23 24 25 27 29 31 35 40 42 43 43 42 41 41 41 42 43 43 43 41 40 39 38 38 37 36 35 34 32
13 12 11 10 10 13 11 11 14 12 10 11 11 13 16 18 20 22 23 24 25 26 27 28 29 30 31 34 37 41 44 44 44 43 42 41 42 43 43 43 43 42 41 40 39 38 37 36 35
13 14 13 12 10 11 9 12 11 12 12 10 13 17 19 20 22 24 26 28 29 30 31 31 32 32 32 33 34 36 38 40 42 45 46 45 44 43 44 44 44 43 43 41 40 39 38 38 37
13 12 12 10 11 10 11 12 12 9 8 11 15 18 20 23 25 28 29 31 32 34 35 36 36 37 37 37 38 39 39 40 41 42 44 45 47 46 44 44 44 43 43 42 41 39 38 38 37
11 12 9 10 9 10 10 10 11 11 10 14 18 21 23 24 26 28 29 32 34 36 37 37 37 38 38 39 39 40 41 41 42 42 43 43 43 43 44 44 43 43 43 42 42 40 39 38 37
10 11 8 9 8 8 7 10 11 12 11 15 19 21 22 24 25 25 26 29 31 32 33 35 36 37 38 38 39 39 40 40 41 41 42 42 41 41 41 42 41 41 40 40 40 40 38 37 36
10 11 10 9 9 7 7 11 10 12 13 17 18 19 20 23 23 23 24 25 26 27 28 28 30 34 36 37 38 38 39 38 39 38 38 38 38 39 39 39 38 38 39 39 38 37 37 36 36
Wind_Direction
229 231 229 229 227 225 230 232 229 225 226 227 232 229 231 231 234 242 252 225 218 212 215 215 216 218 224 229 235 245 261 270 277 283 288 289 290 290 284 279 274 276 260 242 201 230 266 277 276
226 226 225 224 221 222 230 228 224 224 235 244 231 228 237 237 238 243 232 225 215 215 218 218 218 222 227 233 240 246 257 269 276 282 285 292 294 291 279 271 257 258 243 232 240 263 274 281 277
223 223 221 221 220 217 221 224 226 227 243 230 234 233 236 239 239 235 241 223 219 218 217 220 221 223 225 234 240 247 256 264 273 278 283 290 290 288 279 269 256 254 254 255 260 268 276 277 269
220 222 224 222 223 224 219 227 220 236 232 231 241 243 241 240 242 235 234 222 220 220 219 220 221 222 227 235 239 243 250 258 268 273 281 286 286 284 275 269 260 256 260 264 268 273 273 269 269
218 221 222 224 226 225 225 233 235 237 239 240 248 242 243 244 242 235 229 225 222 223 222 222 222 225 230 235 241 244 248 256 258 269 277 276 280 281 277 269 262 258 262 269 271 272 270 273 276
219 219 222 223 225 229 232 235 239 237 239 245 242 242 241 245 239 234 229 227 228 227 226 226 226 228 231 236 242 244 246 249 254 261 262 267 271 274 274 273 268 263 264 266 267 271 277 283 286
217 220 224 226 229 234 233 234 238 237 237 240 242 238 245 245 240 234 231 230 230 229 229 229 229 230 234 240 243 243 245 248 252 254 253 257 263 268 268 269 271 272 270 270 271 277 283 286 288
219 221 222 226 225 233 235 234 237 233 236 239 238 240 244 243 235 233 231 230 231 231 231 232 231 232 235 239 241 244 245 248 251 249 251 255 259 263 265 267 270 272 272 272 276 280 285 289 291
219 223 225 224 223 231 235 234 236 235 236 241 240 242 245 239 231 230 230 232 232 233 233 233 233 234 236 239 243 244 248 247 248 248 252 255 257 260 263 264 268 269 270 272 276 279 283 288 290
220 224 226 227 229 232 236 234 237 238 240 238 243 245 244 235 231 230 232 234 234 234 235 234 234 235 236 241 243 245 247 248 248 249 252 254 257 259 261 263 264 266 267 271 274 278 281 285 287
222 227 227 232 232 232 233 236 235 238 240 237 243 248 243 237 235 235 236 237 235 235 238 237 236 237 239 243 246 245 247 248 248 249 251 255 257 258 258 261 263 264 267 268 271 275 279 283 285
223 227 228 233 233 234 232 234 238 237 238 238 240 244 244 240 238 240 240 239 238 237 238 238 239 239 241 244 245 246 247 248 249 249 251 254 258 258 257 259 262 264 265 268 270 273 277 281 285
224 227 229 233 234 234 233 235 239 241 243 244 244 245 244 242 242 243 243 244 242 241 242 241 241 242 242 244 245 246 247 248 249 250 251 253 257 259 257 258 260 263 264 266 269 271 276 280 283
225 227 230 233 234 235 235 238 237 241 242 244 244 245 245 244 244 246 248 247 245 246 246 244 244 243 244 244 246 247 248 249 250 251 251 252 255 256 257 257 259 261 262 265 267 270 274 279 282
220 224 231 234 231 234 236 241 239 243 245 247 247 245 248 248 248 249 250 252 250 250 248 246 246 245 245 245 247 248 249 250 250 251 251 252 253 254 255 256 258 259 260 262 265 269 273 277 281
218 226 228 233 228 234 230 237 241 243 243 249 250 249 249 251 252 253 254 254 254 252 249 248 247 246 246 247 248 249 250 250 251 252 252 252 252 252 254 255 256 255 257 260 264 268 271 275 278
220 224 226 237 229 230 230 240 239 246 248 252 255 256 253 254 254 254 254 255 254 253 251 250 248 248 248 248 249 250 250 251 252 252 252 252 252 251 252 253 253 253 255 259 262 265 268 271 276
217 226 227 229 235 234 239 245 249 254 255 254 256 258 258 257 256 256 255 255 256 255 253 252 251 250 249 250 249 249 250 251 251 251 251 251 251 250 250 251 251 252 255 257 259 261 265 269 273
218 222 225 232 237 242 244 248 254 256 256 257 258 259 260 260 261 259 258 257 257 255 253 253 252 251 250 249 248 249 249 250 251 252 251 251 251 250 249 250 250 251 252 254 256 259 261 266 269
214 219 228 237 239 245 252 256 257 257 256 256 258 259 261 263 264 263 261 259 257 256 254 253 253 252 251 250 250 250 251 251 251 251 251 250 251 249 248 248 249 250 250 253 254 257 260 264 264
217 222 228 236 247 248 259 257 258 257 257 260 262 261 261 263 264 267 265 261 259 257 256 255 253 252 252 252 251 251 251 252 250 250 250 250 250 249 249 248 249 249 251 252 253 255 257 261 263
217 224 229 235 243 247 259 257 264 263 265 258 263 268 259 261 268 269 270 267 263 262 261 258 255 253 252 252 251 250 250 251 251 251 251 250 249 249 249 249 250 249 250 251 252 254 256 259 262
217 217 222 232 241 253 255 252 258 261 256 256 268 270 264 263 268 273 275 273 271 269 267 265 261 255 252 252 252 252 252 252 252 252 251 250 249 249 248 249 249 250 250 251 252 253 255 260 263
199 211 226 238 243 248 250 240 257 247 251 259 261 265 271 272 274 277 278 277 276 274 272 270 267 263 257 254 253 252 253 253 252 251 251 250 249 248 248 248 248 250 251 251 252 253 256 259 262
209 212 235 245 242 239 243 248 247 256 249 254 257 274 279 280 281 283 283 282 280 278 275 273 270 267 264 260 258 255 254 253 252 252 251 250 249 249 248 248 248 250 251 253 253 253 255 258 260
213 215 220 231 233 244 248 241 242 256 249 250 268 279 282 285 286 286 285 283 282 279 277 275 272 269 267 264 262 260 257 256 255 253 252 251 250 250 249 248 249 250 250 252 253 253 255 258 260
215 222 225 225 243 249 245 254 260 247 252 265 282 289 291 290 290 290 287 286 284 282 278 275 272 270 268 266 264 261 260 258 257 256 255 252 251 251 250 249 249 249 250 250 252 254 256 258 260
217 207 223 235 232 243 248 250 243 255 264 284 298 295 294 294 294 292 291 289 288 285 281 276 273 269 268 267 265 263 261 259 258 258 256 253 252 251 250 249 249 249 249 250 251 253 255 257 259
212 217 218 214 225 222 246 253 237 251 265 295 295 296 298 303 304 301 300 299 296 292 286 281 274 271 270 268 266 264 262 260 259 258 256 253 251 251 249 248 248 248 248 248 250 252 254 256 258
212 210 209 213 229 235 242 262 253 261 271 297 298 300 308 310 307 305 306 307 306 303 297 291 285 275 273 270 267 265 263 261 259 258 255 251 250 250 249 248 247 247 247 247 248 250 253 255 259